[[{"header":{"parameterUnit":"m.s-1","parameterCategory":1,"la1":30.2991,"la2":30.254,"lo1":-89.0895,"lo2":-89.0444,"dy":0.0017,"dx":0.0017,"nx":28,"ny":28,"refTime":"2025-06-10T21:00:00:Z","depth":0,"parameterNumber":2,"parameterNumberName":"U-component_of_WINDS"},"data":[0,0,0,0,0,0,0,0,0,0,0,0,0,0,0,0,0,0,0,0,0,0,0,0,0,0,0,0,0,0,0,0,0,0,0,0,0,0,0,0,0,0,0,0,0,0,0,0,0,0,0,0,0,0,0,0,0,0,-2.0265,-2.0266,0,-2.0284,-2.0284,-2.0285,-2.0257,-2.0256,-2.0255,-2.0254,-2.0275,-2.0276,-2.0278,0,0,0,0,0,0,0,0,0,0,0,0,0,-2.0208,-2.021,-2.0265,-2.0266,-2.0266,-2.0284,-2.0284,-2.0285,-2.0257,-2.0256,-2.0255,-2.0254,-2.0274,-2.0276,-2.0278,0,0,0,0,0,0,0,0,0,0,0,0,0,-2.0231,-2.021,-2.0265,-2.0254,-2.0253,-2.0284,-2.0284,-2.0285,-2.0257,-2.0256,-2.0254,-2.0253,-2.0274,-2.0276,-2.0278,-2.0321,0,0,-2.0285,-2.0286,0,0,0,0,0,0,0,0,-2.023,-2.0233,-2.0256,-2.0255,-2.0254,-2.0267,-2.0272,-2.0297,-2.0258,-2.0256,-2.0254,-2.0252,-2.0273,-2.0276,-2.0282,-2.0322,-2.0323,-2.0285,-2.0286,-2.0287,-2.0288,0,0,0,0,0,0,0,-2.0228,-2.0232,-2.0273,-2.0256,-2.0255,-2.0249,-2.0251,-2.0277,-2.0273,-2.0256,-2.0254,-2.0256,-2.0273,-2.028,-2.0283,-2.0323,-2.0285,-2.0287,-2.0288,-2.0289,-2.0401,-2.0403,0,0,0,0,0,0,-2.0228,-2.0231,-2.0272,-2.0273,-2.0238,-2.0251,-2.0253,-2.0264,-2.0272,-2.0272,-2.0258,-2.0255,-2.0277,-2.028,-2.0283,-2.0335,-2.0287,-2.0289,-2.0291,-2.0399,-2.0401,-2.0403,0,0,0,0,0,0,-2.0226,-2.0231,-2.0271,-2.0252,-2.0256,-2.0254,-2.0267,-2.0265,-2.0273,-2.0274,-2.0273,-2.0266,-2.0276,-2.028,-2.0312,-2.0335,-2.029,-2.0292,-2.0397,-2.04,-2.0402,-2.0438,0,0,0,0,0,0,-2.0225,-2.0231,-2.0247,-2.0252,-2.0257,-2.0299,-2.0268,-2.0267,-2.0276,-2.0273,-2.0281,-2.0281,-2.0275,-2.0309,-2.0314,-2.0337,-2.0294,-2.0395,-2.0399,-2.0401,-2.0435,-2.0442,-2.0447,0,0,0,0,0,-2.0223,-2.0256,-2.0248,-2.0253,-2.0277,-2.0301,-2.0304,-2.0296,-2.0278,-2.0295,-2.0295,-2.0281,-2.0332,-2.0312,-2.0318,-2.0342,-2.0394,-2.0398,-2.0401,-2.0432,-2.044,-2.0447,0,0,0,0,0,0,-2.0253,-2.0256,-2.0247,-2.0283,-2.0292,-2.0296,-2.0316,-2.0305,-2.0319,-2.0315,-2.0306,-2.0308,-2.0342,-2.0346,-2.0324,-2.0385,-2.036,-2.0365,-2.0382,-2.0389,-2.0396,-2.0394,-2.0296,0,0,0,0,0,-2.0264,-2.0283,-2.0285,-2.0316,-2.0321,-2.0318,-2.0328,-2.0321,-2.033,-2.0334,-2.0337,-2.0347,-2.0365,-2.0378,-2.0395,-2.0436,-2.0438,-2.0455,-2.0462,-2.0467,-2.0471,-2.0495,-2.0503,-2.0415,-2.0415,-2.0415,0,0,-2.0287,-2.0291,-2.0303,-2.0322,-2.0328,-2.0349,-2.0321,-2.0343,-2.0359,-2.0338,-2.0368,-2.0371,-2.0381,-2.0419,-2.0435,-2.0422,-2.0496,-2.0471,-2.0475,-2.0477,-2.0499,-2.0507,-2.0515,-2.0418,-2.0417,-2.0417,0,0,-2.0338,-2.0343,-2.037,-2.0377,-2.0387,-2.0385,-2.0391,-2.0398,-2.0399,-2.0429,-2.0414,-2.0433,-2.0464,-2.0473,-2.0481,-2.0539,-2.0526,-2.0545,-2.0577,-2.06,-2.0607,-2.0613,-2.0634,-2.0642,-2.0549,-2.0549,-2.0549,0,-2.0365,-2.0395,-2.0386,-2.0409,-2.0419,-2.0401,-2.0429,-2.0437,-2.0452,-2.0459,-2.0445,-2.0485,-2.0491,-2.053,-2.0545,-2.0552,-2.056,-2.0543,-2.0606,-2.0612,-2.0618,-2.0638,-2.0646,-2.0551,-2.0551,-2.0551,-2.0551,0,-2.0428,-2.0449,-2.047,-2.0484,-2.0496,-2.0522,-2.0519,-2.0532,-2.0525,-2.0525,-2.0557,-2.0564,-2.0582,-2.0591,-2.0585,-2.0631,-2.0623,-2.0608,-2.0582,-2.0628,-2.0647,-2.0655,-2.0554,-2.0554,-2.0553,-2.0552,0,0,-2.0498,-2.0509,-2.0516,-2.0524,-2.0534,-2.055,-2.0576,-2.0594,-2.0606,-2.0618,-2.064,-2.0668,-2.0655,-2.0665,-2.0659,-2.0679,-2.0726,-2.0662,-2.0662,-2.0674,-2.0778,-2.0789,-2.0798,-2.0718,-2.0719,-2.072,-2.0777,0,-2.055,-2.0594,-2.0587,-2.063,-2.065,-2.0634,-2.0657,-2.0667,-2.0668,-2.0686,-2.0687,-2.0708,-2.0688,-2.0694,-2.0713,-2.0716,-2.0746,-2.0712,-2.0739,-2.074,-2.0737,-2.0808,-2.082,-2.0873,-2.0785,-2.0786,-2.0787,0,-2.0616,-2.063,-2.0675,-2.0683,-2.0691,-2.0712,-2.0729,-2.0746,-2.0757,-2.0756,-2.0768,-2.076,-2.0787,-2.0761,-2.08,-2.0776,-2.0788,-2.0791,-2.0793,-2.0795,-2.0766,-2.0813,-2.089,-2.0898,-2.0798,-2.0797,-2.0796,0,-2.0664,-2.0694,-2.0725,-2.0731,-2.0742,-2.0757,-2.0762,-2.0772,-2.0783,-2.0799,-2.0806,-2.0825,-2.0835,-2.085,-2.0847,-2.0828,-2.0887,-2.0861,-2.0888,-2.0888,-2.0901,-2.09,-2.0981,-2.0908,-2.0908,-2.0908,-2.0907,0,-2.0723,-2.0751,-2.0746,-2.0765,-2.0797,-2.079,-2.0822,-2.0826,-2.0835,-2.0855,-2.0843,-2.0863,-2.0857,-2.0877,-2.0876,-2.0908,-2.0913,-2.0914,-2.0913,-2.0915,-2.0915,-2.0922,-2.0919,-2.091,-2.0909,-2.0909,-2.0908,0,-2.0781,-2.0779,-2.0812,-2.0819,-2.0822,-2.0845,-2.0852,-2.0871,-2.0871,-2.0898,-2.0903,-2.0905,-2.0928,-2.0926,-2.0952,-2.0951,-2.0992,-2.0987,-2.0988,-2.0987,-2.1015,-2.1013,-2.1104,-2.1116,-2.1034,-2.1035,-2.1036,0,-2.0818,-2.084,-2.085,-2.0862,-2.0869,-2.0889,-2.0901,-2.0896,-2.0909,-2.0924,-2.0942,-2.0964,-2.0981,-2.1018,-2.1022,-2.1043,-2.1038,-2.1069,-2.1041,-2.1043,-2.1039,-2.1038,-2.1041,-2.1074,-2.1075,-2.1076,-2.1076,0,-2.0886,-2.0884,-2.0902,-2.0919,-2.0934,-2.0948,-2.0961,-2.0972,-2.0968,-2.0984,-2.1007,-2.1021,-2.1048,-2.107,-2.109,-2.1096,-2.1087,-2.1085,-2.1093,-2.1095,-2.1095,-2.1096,-2.1003,-2.1083,-2.1082,-2.1082,-2.1082,-2.1081,-2.0935,-2.0954,-2.0964,-2.0985,-2.0994,-2.1006,-2.1025,-2.1028,-2.1047,-2.1068,-2.1064,-2.1091,-2.1103,-2.1128,-2.1137,-2.1158,-2.1148,-2.1158,-2.1161,-2.1164,-2.1167,-2.1092,-2.1162,-2.1162,-2.1162,-2.1161,-2.1161,0,-2.1003,-2.1009,-2.1028,-2.1046,-2.1062,-2.1051,-2.1065,-2.108,-2.1103,-2.1115,-2.1132,-2.116,-2.1182,-2.1188,-2.121,-2.1226,-2.1222,-2.1232,-2.1231,-2.1233,-2.1175,-2.1167,-2.1235,-2.1235,-2.1235,-2.1235,-2.1235,-2.1235,-2.104,-2.1071,-2.1071,-2.1108,-2.1114,-2.1139,-2.1148,-2.116,-2.117,-2.1201,-2.1219,-2.1223,-2.1233,-2.1256,-2.1276,-2.1277,-2.1286,-2.1298,-2.1298,-2.1244,-2.1237,-2.123,-2.1222,-2.13,-2.13,-2.1353,-2.1354,-2.1354]},{"header":{"parameterUnit":"m.s-1","parameterCategory":1,"la1":30.2991,"la2":30.254,"lo1":-89.0895,"lo2":-89.0444,"dy":0.0017,"dx":0.0017,"nx":28,"ny":28,"refTime":"2025-06-10T21:00:00:Z","depth":0,"parameterNumber":3,"parameterNumberName":"V-component_of_WINDS"},"data":[0,0,0,0,0,0,0,0,0,0,0,0,0,0,0,0,0,0,0,0,0,0,0,0,0,0,0,0,0,0,0,0,0,0,0,0,0,0,0,0,0,0,0,0,0,0,0,0,0,0,0,0,0,0,0,0,0,0,4.7173,4.7172,0,4.7155,4.7155,4.7154,4.7108,4.7107,4.7106,4.7105,4.7087,4.7088,4.7088,0,0,0,0,0,0,0,0,0,0,0,0,0,4.7167,4.7168,4.7173,4.7172,4.7172,4.7155,4.7155,4.7154,4.7108,4.7107,4.7106,4.7104,4.7087,4.7088,4.7088,0,0,0,0,0,0,0,0,0,0,0,0,0,4.7162,4.7168,4.7173,4.7147,4.7144,4.7155,4.7155,4.7154,4.7108,4.7107,4.7105,4.7104,4.7087,4.7088,4.7088,4.7122,0,0,4.709,4.7091,0,0,0,0,0,0,0,0,4.7162,4.7162,4.7151,4.7149,4.7146,4.7132,4.7146,4.7144,4.7109,4.7122,4.7105,4.7103,4.7103,4.7103,4.7103,4.7122,4.7121,4.709,4.7091,4.7091,4.7091,0,0,0,0,0,0,0,4.7162,4.7162,4.7166,4.7151,4.7148,4.7136,4.7134,4.7145,4.7121,4.7121,4.7117,4.7116,4.7102,4.7102,4.7102,4.7121,4.709,4.7091,4.7091,4.7092,4.7166,4.7167,0,0,0,0,0,0,4.7166,4.7163,4.7166,4.7165,4.715,4.7138,4.7135,4.7138,4.7121,4.7117,4.7117,4.7114,4.7102,4.7101,4.7101,4.7138,4.7091,4.7092,4.7092,4.7164,4.7166,4.7168,0,0,0,0,0,0,4.7166,4.7167,4.7167,4.7163,4.7162,4.7139,4.7143,4.7138,4.7139,4.7118,4.7114,4.7122,4.71,4.71,4.7117,4.7137,4.7092,4.7093,4.7162,4.7165,4.7167,4.7215,0,0,0,0,0,0,4.7166,4.7167,4.718,4.7164,4.7163,4.7183,4.7144,4.7139,4.714,4.7135,4.7121,4.7118,4.7099,4.7116,4.7118,4.7137,4.7093,4.716,4.7163,4.7166,4.7211,4.7218,4.7224,0,0,0,0,0,4.7166,4.7195,4.7181,4.7181,4.7178,4.7184,4.7184,4.7162,4.7142,4.7154,4.7141,4.7118,4.7135,4.7119,4.712,4.714,4.7159,4.7163,4.7166,4.7208,4.7217,4.7224,0,0,0,0,0,0,4.7214,4.7192,4.7176,4.72,4.7194,4.7177,4.7191,4.7172,4.7172,4.7168,4.7141,4.7138,4.7158,4.7151,4.7133,4.7172,4.7143,4.7147,4.7175,4.7183,4.719,4.719,4.7094,0,0,0,0,0,4.7227,4.7234,4.7215,4.7238,4.7236,4.7214,4.7216,4.72,4.7193,4.719,4.7179,4.7173,4.7177,4.718,4.7183,4.7211,4.7206,4.7225,4.7232,4.7237,4.724,4.7253,4.7261,4.7179,4.7179,4.7179,0,0,4.7254,4.7243,4.7249,4.7247,4.724,4.7248,4.7212,4.7222,4.7228,4.7192,4.7206,4.7198,4.719,4.7212,4.7222,4.7207,4.7263,4.7242,4.7247,4.7246,4.7258,4.7266,4.7272,4.7182,4.7181,4.7181,0,0,4.7308,4.7301,4.7318,4.7312,4.7303,4.7289,4.7293,4.7278,4.7271,4.7286,4.7259,4.7265,4.7273,4.7268,4.7266,4.7318,4.7297,4.732,4.7354,4.7367,4.7374,4.7379,4.7396,4.7403,4.7324,4.7324,4.7324,0,4.7342,4.7353,4.7329,4.7341,4.734,4.7308,4.7325,4.7321,4.7314,4.7314,4.7298,4.7307,4.7299,4.7319,4.7332,4.7332,4.7336,4.7321,4.7375,4.738,4.7385,4.7401,4.7407,4.7327,4.7326,4.7326,4.7326,0,4.7395,4.7403,4.7418,4.7411,4.7412,4.7427,4.7406,4.741,4.7394,4.7381,4.7396,4.7387,4.7386,4.739,4.7375,4.7408,4.7399,4.738,4.735,4.7396,4.741,4.7416,4.7331,4.733,4.7329,4.7328,0,0,4.7476,4.7456,4.7462,4.7458,4.7446,4.7451,4.7465,4.7464,4.7467,4.7464,4.7473,4.7481,4.7462,4.7461,4.7445,4.7457,4.7497,4.7435,4.7435,4.7445,4.7531,4.7544,4.7552,4.7483,4.7484,4.7485,4.7531,0,4.7524,4.7544,4.7524,4.7549,4.7555,4.7525,4.7537,4.7531,4.752,4.7524,4.7512,4.7517,4.7493,4.7492,4.7502,4.7489,4.7513,4.7486,4.7491,4.7491,4.7492,4.7559,4.7573,4.7617,4.7537,4.7538,4.7538,0,4.7583,4.7581,4.7606,4.7592,4.7594,4.7604,4.7601,4.7606,4.7599,4.759,4.7588,4.7569,4.7581,4.7554,4.7569,4.7552,4.7553,4.7547,4.7548,4.7546,4.7516,4.7557,4.763,4.7636,4.7547,4.7546,4.7546,0,4.7637,4.7641,4.7656,4.7654,4.7638,4.7646,4.764,4.7631,4.7632,4.763,4.763,4.763,4.763,4.7631,4.7612,4.7594,4.7629,4.7601,4.7621,4.7622,4.7628,4.7627,4.77,4.7632,4.7632,4.7632,4.7632,0,4.7691,4.7707,4.768,4.7689,4.7706,4.7683,4.77,4.7691,4.7684,4.7691,4.7666,4.7673,4.7649,4.7653,4.7639,4.7653,4.7654,4.7646,4.7642,4.7647,4.7648,4.7646,4.7642,4.7634,4.7634,4.7633,4.7633,0,4.7753,4.7736,4.775,4.7734,4.773,4.7743,4.773,4.7738,4.7726,4.7735,4.7735,4.7716,4.772,4.7702,4.7703,4.7694,4.7714,4.7706,4.7716,4.7713,4.7734,4.7731,4.7806,4.7814,4.7743,4.7744,4.7745,0,4.7788,4.7799,4.7785,4.7787,4.7782,4.7787,4.7788,4.7766,4.7768,4.776,4.7769,4.7771,4.7771,4.7779,4.7765,4.7766,4.7756,4.7782,4.7756,4.7761,4.7754,4.7753,4.7753,4.7787,4.7788,4.7789,4.7789,0,4.7851,4.7842,4.7843,4.7842,4.7843,4.7841,4.7838,4.7842,4.7818,4.7821,4.7825,4.7825,4.7826,4.7828,4.7826,4.782,4.78,4.7798,4.7802,4.7807,4.7812,4.7808,4.7729,4.7796,4.7795,4.7795,4.7794,4.7794,4.7899,4.7907,4.7898,4.7901,4.7896,4.7893,4.7899,4.7888,4.789,4.7889,4.7877,4.7883,4.7875,4.787,4.7866,4.787,4.7858,4.7864,4.7866,4.7867,4.787,4.7813,4.787,4.787,4.787,4.7869,4.7869,0,4.7959,4.7952,4.7955,4.795,4.7952,4.7935,4.793,4.7932,4.7938,4.7932,4.7933,4.7937,4.7939,4.7926,4.7926,4.7932,4.7923,4.7932,4.7931,4.7929,4.7882,4.7877,4.794,4.794,4.7939,4.7939,4.7939,4.7939,4.799,4.8003,4.7993,4.8003,4.7996,4.8001,4.8,4.7997,4.7993,4.7998,4.7999,4.7991,4.7982,4.7982,4.7983,4.7979,4.7979,4.7991,4.7984,4.794,4.7933,4.7926,4.7922,4.7992,4.7992,4.8031,4.8031,4.8032]}]]